Location: Holbach
(51.5399°N, 10.6036°E)
Time: 10:32:55
(UTC+00:00)

USA 234 - Pass Details

Date: 18 September 2020
Orbit: 1102 x 1106 km, 123.0° (Epoch: 16 October)

Event Time Altitude Azimuth Distance (km) Brightness Sun altitude
Rises 18:32:44 0° 60° (ENE) 3,928 5.8 -11.3°
Reaches altitude 10° 18:35:39 10° 72° (ENE) 2,967 5.0 -11.7°
Maximum altitude 18:41:09 28° 129° (SE) 1,937 4.0 -12.5°
Drops below altitude 10° 18:46:37 10° 186° (S) 2,957 5.4 -13.3°
Sets 18:49:30 0° 198° (SSW) 3,911 6.1 -13.8°
